Theta_e
275 275 275 275 275 275 275 275 276 276 275 276 275 275 273 273 270 269 270 272 272 274 274 275 275 276 276 276 277 276 276 278 279 278 277 277 277 280 283 285 286 287 288 287 288 288 289 289 290 290 291 291 292 294 294 295 295 296 297 298 299 301 301 302 304 306 306 307 308 309 310 310 313 312
275 275 275 275 275 275 275 275 275 275 275 274 275 274 274 274 272 271 269 270 273 274 275 276 275 275 274 276 276 276 275 279 278 277 277 277 276 280 282 283 284 285 286 286 287 288 288 288 289 289 290 291 292 293 293 293 294 295 296 298 300 301 301 302 303 304 305 306 307 308 309 310 310 311
275 274 274 274 274 274 274 274 274 274 274 274 274 273 274 274 273 272 271 268 272 273 273 274 274 274 275 276 275 275 275 277 277 276 276 276 279 280 279 281 283 283 284 285 285 286 287 287 288 288 289 290 291 292 293 293 293 294 295 297 299 300 300 301 301 302 304 305 306 307 308 308 309 310
275 274 274 274 273 273 273 273 273 273 273 274 273 273 273 272 272 272 271 269 269 274 274 274 275 275 274 274 274 274 275 276 278 276 275 276 279 277 276 279 281 282 283 284 285 286 287 287 287 288 288 289 290 291 291 292 293 294 295 296 297 299 298 299 299 300 301 302 303 305 306 306 307 308
274 274 273 273 273 273 272 272 273 272 272 272 273 273 272 272 271 271 270 269 269 271 274 273 273 273 274 273 273 273 274 274 275 277 275 275 275 275 275 275 279 281 282 283 284 286 286 287 287 288 288 288 289 290 290 291 292 293 294 295 296 297 299 299 300 299 300 301 302 303 304 304 305 306
273 273 272 272 272 272 272 272 271 271 271 271 271 271 271 270 271 271 270 269 269 268 271 272 273 273 273 272 274 273 273 273 275 274 275 275 275 275 275 275 275 279 281 283 284 286 286 287 287 288 287 288 289 290 291 291 291 291 292 293 293 294 296 297 298 298 298 300 301 302 304 304 305 305
272 271 271 271 271 271 271 271 271 271 271 271 271 270 271 270 271 271 271 270 268 268 269 271 271 271 272 272 273 274 274 274 274 274 274 274 275 276 275 275 276 279 282 283 284 286 286 286 287 287 287 288 288 289 289 290 290 290 291 292 293 293 294 294 296 297 298 299 301 302 302 303 305 304
271 271 271 270 271 271 270 270 270 271 271 271 271 270 271 271 270 271 271 271 269 269 268 270 271 272 272 273 274 274 275 274 274 274 274 275 275 275 275 275 275 278 281 283 284 285 285 285 286 286 287 287 288 288 288 289 289 289 290 290 292 293 293 294 295 295 296 298 299 300 301 302 303 304
271 271 270 270 270 270 270 270 270 270 270 271 270 270 271 271 271 271 271 270 270 269 269 270 272 273 273 273 274 274 273 274 274 275 275 275 275 275 275 276 276 279 281 282 282 283 284 284 285 286 286 286 287 287 288 288 288 288 289 289 290 291 292 292 293 294 295 295 296 298 300 301 302 303
271 270 270 270 270 270 269 270 270 270 270 271 270 270 270 270 271 270 271 271 271 271 270 270 270 272 272 272 273 274 274 274 273 274 274 275 275 274 275 276 277 277 277 276 277 279 280 281 283 284 285 286 286 287 287 288 288 287 287 288 289 290 291 291 292 293 294 294 294 296 299 301 301 302
271 270 270 270 270 270 271 270 270 271 271 271 270 270 270 271 271 271 271 272 272 271 271 271 272 271 273 273 272 274 275 275 274 273 273 273 275 276 275 274 276 277 276 279 281 281 281 282 281 283 284 285 286 287 287 287 288 287 287 288 289 290 291 291 292 293 293 294 294 294 295 297 300 302
270 270 270 271 271 271 271 271 271 271 270 271 270 271 272 272 272 272 272 272 272 272 272 271 271 272 272 273 275 275 275 274 274 275 274 273 273 274 276 276 275 276 277 276 276 279 280 280 281 282 283 284 285 285 285 285 285 285 286 287 288 288 289 290 291 292 292 293 294 294 295 295 296 299
270 270 271 271 272 272 273 274 274 274 274 272 271 273 273 273 273 272 272 272 272 272 272 271 273 272 272 273 273 273 273 273 273 275 275 274 275 275 275 276 277 277 276 276 276 276 276 276 276 277 277 278 280 281 283 284 285 285 286 286 286 287 289 290 291 291 291 292 294 294 295 295 295 296
271 271 271 272 274 275 275 276 277 278 278 278 276 274 274 273 273 273 272 272 272 272 272 272 273 272 272 273 274 274 274 275 276 275 275 274 274 274 274 275 276 277 276 275 274 276 277 277 277 278 277 279 281 281 281 281 282 283 285 286 287 288 289 289 290 291 292 293 293 294 294 295 295 296
271 272 272 273 274 276 277 276 278 278 279 279 279 279 279 279 276 274 274 274 274 273 273 273 273 273 273 274 275 274 275 275 275 274 274 274 273 272 271 270 274 277 276 275 275 274 277 277 276 276 277 278 279 279 279 283 283 284 286 287 287 288 289 290 290 291 292 293 293 294 294 295 295 296
273 273 273 274 274 275 275 275 275 276 277 277 278 278 279 279 279 280 277 274 274 274 273 273 273 273 273 274 275 275 274 274 274 274 274 273 273 272 272 272 271 275 277 275 274 273 276 276 275 275 276 277 278 278 281 284 285 286 287 287 288 288 289 290 290 291 292 293 293 294 294 295 295 296
273 274 274 274 275 274 276 276 275 273 272 275 277 277 277 278 278 279 280 280 277 276 274 274 274 274 274 273 273 274 274 275 273 274 274 274 274 274 273 273 273 275 278 275 274 273 275 276 275 275 276 277 277 278 282 284 285 285 286 287 287 288 289 289 290 291 292 293 294 294 295 295 295 295
274 274 274 274 273 274 273 273 273 273 272 272 273 273 274 274 275 278 278 279 279 278 276 274 273 274 275 273 274 276 277 275 273 274 273 274 274 274 274 275 276 277 278 275 274 272 274 276 275 274 276 277 277 278 281 283 285 286 286 287 287 288 289 290 290 291 292 293 294 294 295 295 296 296
275 275 275 274 272 272 273 273 273 272 272 273 273 273 273 274 275 276 276 276 276 275 275 275 275 275 276 276 276 277 277 277 276 276 275 275 275 275 276 275 275 275 277 277 275 271 274 276 275 275 276 277 277 278 281 284 285 286 286 287 287 288 289 289 290 291 292 293 294 295 295 295 296 296
275 275 274 273 272 272 272 274 276 276 275 274 274 273 274 275 275 275 277 278 279 278 277 277 277 277 277 279 277 278 278 278 278 277 275 274 272 271 270 269 271 271 274 276 275 273 273 276 275 275 277 277 277 278 278 282 285 286 286 287 287 288 289 290 290 291 292 293 294 295 295 296 295 296
274 273 273 272 272 272 272 274 276 277 277 275 274 273 273 274 273 274 276 278 279 279 279 279 280 280 280 281 281 281 281 278 276 272 270 268 270 268 267 267 269 269 272 274 276 274 273 275 276 275 277 277 277 277 278 279 283 285 285 286 288 288 289 289 289 290 292 293 294 294 294 295 295 295
272 272 274 273 272 272 272 275 277 278 276 274 274 273 273 273 273 274 274 274 275 277 277 278 278 279 279 278 278 277 276 276 275 270 267 269 269 267 267 266 268 269 271 273 277 274 273 275 276 275 276 277 277 278 278 279 281 284 284 286 287 288 289 290 291 291 292 293 294 294 294 295 295 294
271 272 273 275 275 274 275 277 277 278 277 274 274 274 273 272 272 272 273 272 271 271 272 273 273 271 271 270 269 269 274 275 274 271 270 269 268 267 267 267 268 267 270 274 277 273 273 274 275 275 273 272 276 279 279 280 280 281 282 283 284 287 289 289 290 291 292 293 293 294 295 295 294 293
271 271 272 274 276 277 277 277 277 277 277 275 275 274 273 272 271 272 271 271 272 273 272 269 268 267 268 268 268 268 269 270 270 271 270 270 270 268 268 269 270 269 270 275 278 275 275 276 275 277 276 273 271 276 279 278 279 279 280 281 281 283 285 285 285 288 291 292 293 294 294 294 294 291
270 271 272 273 275 276 276 276 276 277 277 277 275 274 272 272 272 274 272 273 274 269 267 266 265 265 266 266 267 268 268 269 270 270 271 271 271 270 269 268 268 267 269 272 276 274 273 275 274 276 275 275 275 274 276 277 278 278 279 280 280 282 284 285 286 287 289 291 292 293 293 293 294 293
271 272 273 273 274 275 275 275 276 276 277 277 275 273 275 276 276 274 273 269 266 265 264 263 263 263 264 264 265 267 267 268 269 270 271 271 271 271 271 269 268 266 267 271 276 273 272 273 275 274 275 274 274 275 274 276 278 279 279 280 281 281 282 282 283 284 285 286 288 290 291 293 293 294
272 273 273 273 274 274 274 275 276 277 277 275 273 275 275 275 276 274 267 265 263 262 262 262 262 263 263 264 265 266 267 269 270 270 270 271 271 271 271 272 271 270 271 272 273 273 273 272 275 275 274 275 274 275 275 274 276 279 279 280 281 282 283 283 283 284 285 286 287 291 292 293 292 293
272 272 272 271 273 273 274 275 275 275 274 273 274 274 274 274 273 267 263 262 261 262 262 261 262 262 264 265 265 266 268 268 269 269 270 270 271 271 271 271 272 272 272 272 272 273 274 274 274 276 276 275 274 273 273 276 277 277 277 279 280 281 282 283 283 284 284 285 285 286 286 287 288 289
272 273 273 273 274 274 274 273 273 271 270 271 272 272 273 271 264 262 261 261 261 260 261 262 263 263 264 266 267 268 268 269 269 269 269 270 270 271 271 271 271 271 272 271 271 272 272 272 272 274 276 277 275 275 275 275 276 276 278 277 277 280 281 282 282 282 283 283 284 284 285 286 287 288
274 274 274 274 272 270 269 268 267 266 266 270 271 271 269 264 261 260 260 260 261 261 262 263 262 264 265 266 267 268 268 267 267 267 267 268 268 269 268 268 268 269 270 271 271 271 272 272 273 274 275 276 277 276 276 276 276 277 278 278 278 280 281 282 282 283 283 283 284 285 286 287 288 288
270 271 270 269 270 269 269 269 268 268 267 264 263 262 261 261 261 260 260 261 262 263 262 262 263 265 266 266 266 266 266 265 266 268 268 267 267 268 268 267 266 267 269 270 271 271 271 272 273 273 273 275 277 278 278 278 277 277 278 279 279 276 280 282 282 282 283 283 283 284 285 286 287 288
268 267 267 265 262 261 260 260 259 259 259 260 260 260 260 260 261 263 266 266 263 263 263 263 264 264 264 263 264 265 265 265 266 268 268 267 267 267 267 266 265 266 266 267 269 271 272 271 272 273 274 275 275 277 279 278 277 278 278 279 280 280 281 280 281 282 283 284 284 284 285 287 287 288
263 262 260 259 258 258 257 257 257 257 256 258 258 258 258 258 259 260 259 259 260 261 262 262 262 262 263 263 264 265 265 265 266 268 267 268 267 267 267 265 265 264 264 265 266 268 269 270 272 272 272 274 276 278 278 277 278 279 279 279 280 280 281 281 282 282 283 283 282 283 284 285 286 287
260 259 258 257 256 257 256 256 256 256 256 256 257 257 261 260 259 259 260 260 261 261 262 262 262 262 263 263 264 264 265 266 267 268 269 267 267 266 265 264 264 265 265 265 265 266 267 268 269 270 272 274 276 278 280 279 278 279 280 281 281 280 282 282 282 283 283 283 283 283 283 284 286 288
260 258 257 257 256 256 256 255 256 256 256 256 256 257 257 258 259 260 260 260 261 261 261 262 262 263 263 263 264 264 265 265 266 267 267 267 266 265 265 264 264 264 264 264 265 266 266 267 267 267 268 270 272 277 283 283 280 280 281 281 281 281 282 283 283 283 284 284 284 283 283 284 285 288
258 257 256 255 255 255 255 255 256 255 255 256 256 256 256 257 259 259 259 261 261 261 261 261 262 262 263 264 264 265 265 266 266 266 266 266 265 265 265 264 264 264 264 264 265 266 266 266 266 265 264 265 267 268 273 284 284 282 280 280 282 282 282 283 284 284 284 284 284 284 282 282 284 286
258 255 255 255 254 254 254 254 254 254 255 255 255 256 256 256 258 259 260 261 261 261 261 262 262 263 263 264 265 265 266 266 265 266 265 265 265 265 264 264 264 264 264 264 265 265 266 265 266 265 264 264 265 266 270 277 283 285 282 281 281 282 282 282 283 283 284 284 284 284 284 284 284 286
256 256 254 254 253 253 253 253 253 254 254 255 255 255 256 257 257 258 260 260 260 260 261 261 262 263 264 264 264 265 266 266 266 265 265 265 264 264 264 263 263 263 264 264 265 265 266 265 265 265 265 264 264 266 268 274 278 282 285 284 281 282 283 282 282 282 283 284 284 285 285 284 285 286
255 255 254 253 253 252 252 253 253 253 253 254 254 254 255 255 256 257 258 258 259 260 261 262 262 263 264 264 265 265 265 265 265 265 264 264 264 264 263 263 263 264 264 264 264 265 265 265 265 265 265 265 265 266 269 271 274 281 285 287 284 283 283 283 282 283 283 283 284 286 286 288 288 288
254 253 252 252 252 252 252 252 252 252 253 253 253 254 254 256 256 256 256 258 259 261 262 262 262 263 263 264 265 266 266 265 265 265 264 264 264 264 264 264 264 264 263 263 263 264 264 264 265 265 266 267 268 270 272 273 274 276 277 282 287 285 284 284 283 283 283 284 285 284 284 286 285 287
252 252 252 252 251 251 251 251 251 252 252 253 253 255 256 255 255 255 256 259 261 261 260 261 262 263 264 264 265 266 265 265 265 264 264 264 264 264 264 265 264 264 263 262 263 263 263 265 267 271 269 268 269 270 269 267 268 271 275 280 286 287 286 286 285 285 284 285 285 285 285 285 286 288
252 251 250 249 249 250 250 250 250 251 252 252 253 253 254 255 255 260 260 260 259 259 260 261 262 263 264 265 266 266 265 265 264 264 264 264 263 264 264 264 263 263 263 262 262 263 265 267 267 268 267 267 267 265 264 266 267 271 275 280 284 286 287 287 286 286 287 286 285 284 284 285 286 286
252 250 250 250 249 249 249 250 250 250 251 252 252 253 253 254 255 255 256 257 258 259 260 261 263 263 264 265 266 266 265 264 264 263 264 264 264 263 263 263 263 263 263 263 264 265 265 266 267 266 266 266 266 267 266 268 271 273 276 279 282 285 286 287 287 287 287 287 287 287 287 286 285 284
250 249 249 248 248 248 248 249 249 250 251 251 252 253 253 253 254 255 256 257 258 259 260 261 263 264 265 266 266 266 265 264 264 264 263 263 264 264 263 263 264 264 264 264 264 264 265 265 266 266 265 265 266 267 267 269 271 275 277 280 282 284 285 286 286 287 287 287 287 287 287 288 288 289
249 249 248 247 247 247 248 248 249 250 250 251 252 252 253 254 255 256 256 257 258 259 260 262 263 264 265 266 266 265 265 267 265 263 263 263 264 264 264 264 264 263 263 264 263 263 264 264 265 266 266 266 267 267 269 271 272 275 278 280 281 284 285 285 285 285 285 286 287 287 287 287 287 287
Wind_Speed
6 4 4 4 4 3 3 3 4 5 3 4 4 4 4 3 2 7 7 8 4 1 4 0 2 3 2 2 0 3 4 7 12 10 9 9 8 15 22 24 24 24 26 27 28 29 29 29 30 29 29 29 30 30 30 30 30 31 32 33 33 33 34 35 36 36 35 36 35 37 37 35 35 36
5 4 3 3 4 2 3 4 3 3 4 4 4 4 4 4 5 4 7 10 3 9 3 5 4 3 2 4 6 4 7 12 16 9 9 9 10 18 22 22 23 25 27 28 28 29 29 29 30 30 30 30 30 31 31 31 31 31 32 33 34 33 33 34 35 36 36 36 36 36 35 36 38 37
5 4 4 3 3 3 3 3 2 2 3 4 3 3 3 2 2 3 5 10 3 6 2 2 1 0 6 6 6 8 9 10 12 11 10 9 14 22 17 22 24 25 27 28 29 29 30 30 30 30 30 31 31 31 31 32 32 32 33 33 33 33 33 33 34 35 36 35 37 36 36 38 39 38
6 5 5 5 4 3 3 3 3 3 3 3 4 3 3 2 2 2 5 9 19 6 10 7 7 8 6 7 12 11 7 10 15 10 11 11 16 12 11 17 22 25 27 27 28 30 30 31 31 31 31 32 32 32 32 32 32 32 32 32 33 33 33 34 34 35 35 36 36 37 37 38 39 39
6 6 5 5 4 4 4 4 4 4 4 3 4 3 3 3 2 2 5 10 17 17 5 12 5 3 7 11 5 15 11 9 10 9 10 11 10 10 10 11 17 23 25 28 29 30 31 32 31 31 31 31 32 32 33 33 32 32 32 32 33 33 33 34 34 34 35 36 36 37 38 38 39 39
5 5 5 5 5 4 5 4 4 4 4 4 4 4 4 4 4 2 5 9 11 21 13 9 13 7 4 14 5 11 17 12 9 14 11 9 10 11 10 10 11 19 23 28 30 31 31 32 32 32 32 32 32 33 33 32 32 32 32 32 33 33 33 34 35 35 35 36 36 37 38 39 39 40
6 6 6 6 5 4 5 5 5 4 5 5 5 5 4 4 4 3 5 7 12 15 20 12 14 10 4 8 15 11 11 13 11 13 13 9 8 8 10 11 11 18 24 27 29 32 31 31 31 31 33 32 32 33 33 33 33 33 32 33 33 33 33 33 34 35 35 36 36 36 38 39 38 41
7 7 6 6 6 5 6 5 5 5 5 5 5 5 4 4 5 5 5 8 9 13 16 19 9 14 13 9 8 10 13 13 12 10 11 11 12 11 10 11 12 13 22 25 29 31 31 31 31 32 34 34 34 34 35 34 33 33 33 33 32 32 32 33 34 36 35 36 37 37 38 40 39 39
8 7 7 6 6 6 6 6 6 6 7 6 5 5 5 5 5 5 6 8 9 12 15 17 16 11 15 12 10 10 14 14 11 12 15 13 12 12 12 10 10 16 23 25 29 30 30 31 33 34 34 35 36 35 34 35 34 34 34 33 33 32 33 33 34 35 35 35 36 37 37 39 40 40
7 7 7 7 7 7 7 7 6 7 8 7 7 7 6 5 6 7 8 9 11 12 15 14 18 16 12 17 13 7 14 16 14 15 14 12 9 11 15 13 9 8 10 10 11 17 22 25 30 31 32 34 34 35 34 34 34 35 33 33 33 33 34 35 35 35 35 37 40 37 37 36 40 38
7 6 6 7 7 8 8 8 8 8 8 7 7 7 6 7 8 8 9 10 12 13 14 14 13 15 14 9 17 12 8 14 14 14 18 23 13 9 12 15 11 9 11 15 21 21 23 27 26 30 34 34 35 35 35 34 36 34 33 32 33 32 32 33 33 32 33 35 37 39 39 39 37 38
7 7 7 7 8 9 9 9 8 7 7 6 6 7 7 8 9 10 10 11 11 11 12 13 14 13 15 15 13 14 11 14 19 10 12 18 25 19 17 15 12 9 11 14 13 13 17 19 23 28 28 30 32 32 31 31 32 33 31 30 31 33 34 33 33 33 33 35 36 37 39 40 40 39
7 7 7 8 9 10 12 14 11 10 9 6 6 7 8 8 9 9 8 8 10 11 11 13 11 15 14 15 15 16 16 10 19 14 13 18 16 17 18 20 16 10 11 12 12 14 10 12 12 11 11 12 20 23 29 24 28 26 27 32 34 34 33 33 34 35 35 34 36 37 39 40 41 42
8 9 8 8 14 15 16 15 15 15 14 15 10 8 8 8 9 8 8 9 8 8 10 10 11 14 16 15 17 16 16 17 16 20 16 17 21 19 19 19 16 10 9 13 13 12 9 10 13 11 11 10 12 10 10 11 17 26 34 34 33 34 34 34 35 35 35 34 32 35 39 40 40 37
9 9 10 9 12 14 13 12 15 14 15 15 16 18 18 15 10 8 10 10 9 10 12 12 13 13 17 18 14 20 16 15 19 15 18 20 17 17 19 20 20 10 6 10 14 14 13 10 14 14 13 12 11 13 15 26 32 33 33 34 34 34 33 34 35 34 34 33 32 31 36 41 42 38
9 9 9 9 8 8 8 7 6 10 13 14 15 16 16 17 19 19 14 11 11 10 11 12 13 15 16 19 16 13 17 18 18 17 19 17 19 21 21 19 19 17 8 12 15 17 17 9 13 16 14 11 12 14 23 32 34 34 34 33 33 33 34 34 34 34 33 33 32 33 33 38 41 40
9 8 8 9 8 6 11 8 6 4 4 11 16 16 17 18 19 19 22 23 17 12 13 14 15 11 14 16 18 17 17 15 20 22 17 19 16 20 18 25 18 20 13 11 16 21 21 11 11 15 13 10 12 15 23 32 33 34 33 33 33 33 33 33 33 34 34 32 33 32 33 35 39 40
9 10 9 9 7 6 6 7 7 7 6 6 8 9 9 9 14 19 22 23 25 21 15 15 17 18 14 18 17 21 17 19 16 16 18 20 18 18 21 21 24 22 13 13 16 20 21 9 12 17 14 9 12 14 21 30 32 32 33 32 33 33 33 33 33 33 33 33 32 33 31 33 37 39
10 10 10 9 6 6 6 6 8 7 7 8 9 10 10 10 10 11 11 11 12 14 15 16 18 19 15 17 18 15 15 15 17 15 18 18 17 17 20 20 22 19 13 11 13 19 18 8 10 16 14 11 12 15 18 29 32 32 32 33 33 33 34 34 33 32 33 33 32 32 30 28 34 37
9 9 8 7 6 6 7 9 13 11 8 8 9 9 10 9 9 11 15 21 20 17 15 14 15 15 18 23 22 21 19 16 13 14 15 14 16 17 18 18 17 16 10 10 12 16 19 16 13 17 13 11 14 15 12 20 30 31 31 32 33 34 33 33 32 32 32 32 31 29 29 26 24 30
8 7 7 7 5 6 6 10 13 13 12 7 8 9 9 9 12 11 10 16 21 23 25 27 28 31 31 30 30 29 32 25 21 15 15 16 13 15 19 18 17 18 12 8 12 15 20 16 9 13 12 11 14 14 11 12 20 31 33 34 34 32 32 33 34 33 32 31 30 29 29 27 23 24
5 7 12 9 6 6 7 11 13 13 10 7 8 8 11 13 10 11 13 12 12 19 25 28 29 27 25 28 31 31 29 29 22 13 16 16 13 18 16 20 19 19 15 10 10 14 19 15 11 10 13 13 12 13 11 13 16 24 26 31 32 32 31 31 31 30 31 31 31 29 30 27 23 17
5 7 8 12 10 9 9 13 12 14 11 7 8 10 10 9 11 11 12 11 12 12 11 11 9 10 16 15 13 16 28 28 24 17 16 13 14 16 18 18 18 17 15 7 12 15 16 12 13 9 11 13 10 10 11 10 11 10 11 11 13 20 23 25 27 30 32 33 33 33 31 26 21 11
7 7 6 8 11 13 13 13 13 13 14 10 9 7 8 8 9 7 10 12 12 13 10 9 9 13 13 13 12 12 12 14 15 17 16 16 14 14 16 16 17 17 14 5 8 13 12 10 15 10 11 14 13 6 7 10 10 11 10 11 13 21 27 29 27 34 37 35 34 31 28 26 22 11
7 6 6 6 8 10 11 11 12 13 15 15 9 7 6 7 12 15 11 10 14 9 10 11 11 11 11 10 10 11 11 10 10 13 16 14 14 14 14 15 17 18 18 13 18 14 15 10 14 13 11 12 12 14 11 10 12 11 12 12 13 13 11 12 10 12 14 23 26 29 29 28 28 19
7 7 7 5 7 9 9 10 12 14 15 17 9 8 16 20 21 14 9 7 7 9 9 10 10 10 10 9 10 9 10 11 11 12 13 14 15 15 16 16 17 19 21 16 23 17 15 16 12 16 12 11 13 13 15 11 12 10 11 12 12 13 11 12 11 13 14 13 12 14 17 27 28 30
8 7 6 5 8 9 9 10 13 14 15 13 10 15 18 18 21 16 6 7 8 8 9 9 10 10 9 10 9 11 10 9 10 13 13 15 16 15 17 18 20 21 22 21 19 19 16 18 16 17 18 13 13 15 15 16 11 8 10 10 11 11 10 10 11 12 12 13 12 17 21 23 28 29
7 5 6 4 8 8 10 10 11 12 12 10 14 16 17 18 16 7 8 7 8 9 10 9 10 10 9 9 11 10 11 12 14 16 17 16 18 19 17 19 19 19 23 23 21 19 17 17 17 16 16 17 15 16 20 14 15 11 13 13 10 12 10 11 11 11 12 11 11 11 11 12 13 15
6 8 9 9 10 9 6 7 8 8 9 12 14 15 17 15 6 7 7 8 8 9 9 10 11 11 11 12 13 14 15 16 15 14 13 14 14 13 16 16 16 17 17 17 17 16 16 16 19 17 16 15 15 19 16 18 14 13 12 13 12 11 11 11 11 13 13 14 14 14 14 14 14 13
11 10 10 7 2 2 2 2 2 3 5 12 15 16 15 6 7 6 7 7 8 9 10 10 12 12 13 14 14 16 14 13 12 12 14 14 13 11 13 14 14 12 15 14 17 17 19 19 16 17 15 17 16 17 16 17 16 14 13 12 16 12 12 12 12 12 12 12 12 13 13 13 14 13
5 6 5 3 2 2 1 3 5 6 8 8 8 6 5 6 7 7 6 7 8 9 10 11 11 12 13 13 14 13 13 14 13 13 14 13 14 13 13 13 17 15 12 11 13 16 18 18 18 18 17 18 15 17 16 14 16 13 13 13 15 14 13 10 10 12 13 14 14 14 14 14 15 16
5 5 5 6 4 3 3 2 1 2 3 5 6 6 6 6 8 10 13 13 9 9 9 10 11 12 12 12 13 13 13 14 13 12 12 12 14 12 13 14 14 15 16 12 9 11 15 17 17 17 17 18 20 15 14 16 16 13 15 13 14 14 15 14 13 13 10 10 12 13 13 13 13 13
6 6 4 4 3 3 1 0 1 2 2 4 5 6 7 7 7 6 4 6 7 8 8 10 11 13 12 13 13 13 13 12 12 12 13 13 13 14 10 14 14 13 15 16 14 11 9 13 16 18 16 17 19 20 16 15 15 13 16 12 14 14 14 14 11 12 11 12 15 15 16 15 14 15
6 5 5 3 3 2 1 1 2 2 3 4 6 6 8 7 6 6 6 6 8 8 9 10 11 12 13 14 13 13 14 15 14 13 15 15 14 14 14 14 14 12 14 15 15 16 13 12 11 15 17 20 17 20 18 16 15 12 12 12 13 14 15 12 13 13 12 12 13 15 15 16 15 14
7 6 6 4 3 3 3 3 3 2 3 4 5 7 7 7 7 7 6 7 8 8 9 10 10 12 12 14 14 14 15 16 16 14 12 12 14 14 15 15 16 14 15 15 16 13 14 15 14 17 16 15 16 17 19 20 14 15 13 13 13 12 14 12 11 11 14 13 13 15 16 16 16 15
6 6 6 5 4 4 3 3 3 3 3 5 6 6 7 7 6 6 7 7 7 8 9 10 11 11 12 13 14 14 15 16 16 15 15 14 14 15 14 15 16 17 15 15 16 14 13 15 14 16 18 18 16 16 16 20 25 17 15 14 13 14 15 14 14 13 13 13 13 14 15 18 17 16
7 6 6 5 4 4 4 3 3 3 3 5 6 6 6 7 7 7 9 11 9 8 10 11 11 12 12 13 14 15 14 14 15 16 16 15 14 14 16 16 15 16 16 15 13 15 12 14 13 13 15 17 16 18 17 13 20 27 18 17 15 14 15 13 13 14 14 15 14 14 16 16 17 18
7 6 6 5 4 4 3 2 2 3 4 4 5 6 6 6 7 8 8 8 9 9 10 10 11 12 12 13 13 14 15 14 14 15 15 15 16 16 15 16 17 16 16 15 14 13 12 13 14 14 14 17 18 18 18 15 14 15 26 21 17 16 13 14 14 15 14 12 15 14 14 17 19 20
7 8 6 6 5 4 3 3 3 4 4 5 5 5 6 7 7 7 7 7 8 9 10 11 10 11 13 13 13 14 15 15 16 15 16 15 15 17 17 16 17 16 16 17 15 13 12 13 13 14 14 16 18 17 16 17 18 14 14 27 20 15 14 13 14 13 14 12 13 13 13 17 20 27
6 6 6 5 4 4 3 3 3 4 5 6 5 5 6 7 7 7 8 8 9 10 10 11 13 13 12 12 13 14 14 15 15 15 16 16 15 16 16 16 16 17 18 17 18 15 13 14 13 13 14 15 16 16 17 19 19 18 20 22 29 24 15 12 14 13 13 14 11 11 13 12 13 15
6 6 5 5 4 4 3 3 4 4 5 5 6 6 7 7 8 8 7 9 9 10 11 11 12 12 13 13 13 13 15 14 14 14 15 16 17 16 19 20 17 15 17 19 18 18 16 13 17 27 26 19 18 17 18 19 19 17 16 17 19 28 30 23 16 13 14 13 10 12 13 12 11 12
6 5 5 4 4 3 3 3 4 5 5 5 5 6 6 7 7 13 11 13 11 11 11 11 12 12 13 12 13 14 14 14 15 15 16 15 17 17 17 14 16 16 16 18 19 19 18 16 19 17 15 15 16 16 19 18 18 17 16 15 13 17 27 31 30 26 19 13 12 13 12 12 10 12
5 4 4 4 3 3 3 4 4 5 5 5 5 6 6 7 7 8 7 9 9 10 10 11 12 12 13 13 13 13 13 14 15 15 16 16 16 17 18 16 16 17 17 18 18 18 18 17 15 15 14 14 16 15 18 18 17 16 15 14 14 11 12 22 29 30 29 30 26 21 15 12 9 11
4 4 4 4 4 3 3 4 5 4 5 5 6 6 6 6 7 8 8 9 10 10 11 12 12 12 13 14 13 13 11 12 14 16 17 17 16 17 17 18 18 17 17 17 19 18 17 17 16 14 15 15 14 15 18 18 18 17 15 15 14 13 13 9 11 20 25 29 32 32 34 29 24 22
5 5 4 3 3 2 3 4 5 5 5 5 5 5 6 6 7 8 9 9 10 11 12 12 13 13 13 14 13 13 13 16 17 15 15 16 16 16 16 17 17 18 17 16 18 20 17 17 16 12 13 16 15 16 18 18 18 17 16 16 16 12 9 8 10 10 11 12 23 33 33 33 34 34
Wind_Direction
157 156 166 183 198 214 217 231 227 230 224 220 212 194 203 210 272 319 293 317 280 31 120 199 287 155 146 142 8 323 294 298 304 297 293 287 288 298 302 304 304 303 301 300 298 296 295 295 296 295 294 292 291 290 289 287 286 285 285 284 282 279 276 272 273 274 275 276 277 278 276 278 273 269
150 151 157 173 197 206 214 222 228 219 214 204 195 192 197 183 215 261 296 294 153 280 231 192 221 206 239 329 316 311 298 298 301 288 285 290 286 292 296 297 296 295 295 295 294 294 295 295 295 294 292 291 290 289 288 286 285 284 284 283 281 278 275 272 269 270 270 271 273 272 276 276 271 268
147 155 174 174 194 196 210 211 201 207 200 211 191 193 163 182 202 245 279 292 278 118 310 188 186 348 302 301 302 301 295 291 294 290 285 283 285 292 291 290 290 290 291 293 294 295 295 295 294 294 292 291 289 287 286 286 285 285 284 283 281 279 276 274 271 268 268 270 271 271 271 271 269 266
156 163 177 183 183 186 190 210 217 216 219 202 207 194 188 210 201 227 269 261 273 244 281 261 260 275 288 297 298 287 278 286 288 282 281 277 282 285 281 278 282 287 289 291 293 295 296 296 294 293 292 290 289 287 286 285 285 283 282 281 279 278 276 273 270 268 266 266 267 269 269 268 268 266
160 169 177 181 183 174 198 209 213 216 216 217 216 204 198 219 210 226 256 271 280 287 215 280 252 260 304 289 277 296 295 289 289 268 271 279 276 271 270 277 276 282 287 291 293 296 295 296 294 293 291 290 288 287 285 284 283 283 282 280 279 278 275 274 271 269 266 263 264 265 266 266 267 265
165 167 179 191 182 184 197 202 209 210 213 215 218 219 199 213 230 211 261 263 276 288 291 279 291 281 287 291 289 293 305 296 283 288 277 265 267 272 276 275 274 273 284 290 293 295 294 294 293 291 290 289 288 286 285 283 283 283 282 280 277 275 274 273 270 269 268 264 261 262 264 264 263 264
163 172 184 194 178 180 193 205 211 204 216 216 219 221 207 219 224 234 234 264 275 281 288 292 293 294 280 285 303 298 283 287 289 286 287 277 266 261 264 270 274 279 285 289 292 297 296 294 292 289 288 287 286 285 283 282 282 281 282 280 276 274 273 271 271 269 266 265 263 260 262 263 262 263
169 178 185 192 182 182 195 204 201 206 207 214 217 216 224 219 236 237 236 246 262 283 289 291 285 300 304 292 281 291 290 288 292 283 277 277 278 271 260 256 269 277 281 286 293 295 293 291 288 287 284 284 284 281 280 279 279 279 281 279 276 274 271 272 270 267 266 266 263 261 259 259 260 260
169 178 188 186 179 186 197 207 204 203 208 216 208 221 221 227 232 235 241 248 252 268 274 284 287 289 292 291 291 303 299 299 293 287 285 286 280 277 264 262 268 269 274 280 286 286 286 286 285 284 282 280 281 279 278 277 277 277 278 277 277 276 276 276 275 273 268 263 263 261 255 256 258 258
172 179 185 187 187 192 200 207 202 202 209 209 213 219 222 225 231 239 243 245 249 253 263 273 291 291 289 301 289 291 297 298 303 300 289 269 263 279 289 278 272 268 276 283 273 276 278 276 278 280 282 280 278 278 277 276 275 276 276 276 275 275 273 271 269 268 268 267 261 260 260 254 255 256
170 178 185 192 195 199 207 208 206 206 208 206 214 216 220 225 231 239 243 246 252 256 265 272 269 285 290 275 294 298 278 285 286 301 306 302 291 270 270 288 297 292 280 268 273 279 281 282 285 284 283 279 279 280 279 276 274 274 274 273 272 274 278 278 275 272 268 267 264 259 257 257 258 258
173 182 190 198 205 209 213 214 212 206 206 207 216 220 220 225 233 239 244 248 250 256 261 266 277 274 284 288 281 283 287 293 291 289 286 296 304 310 302 286 291 294 280 289 288 271 272 276 276 276 276 275 276 279 280 277 275 272 270 274 282 283 279 276 272 270 272 267 261 259 255 253 254 256
176 185 196 205 210 212 217 219 219 213 211 205 218 224 219 227 234 239 243 248 255 258 260 267 266 277 278 279 288 291 298 288 293 300 299 292 288 297 299 298 294 291 282 273 271 281 269 274 268 262 257 255 260 265 266 271 273 277 280 284 282 278 275 272 272 273 274 271 262 254 253 250 250 252
186 193 197 204 215 221 224 227 230 232 234 233 226 213 209 215 223 230 238 245 245 249 257 258 274 280 282 285 291 290 293 297 296 296 299 294 299 301 291 288 287 293 283 287 278 271 263 261 270 259 259 255 253 255 257 258 269 272 274 275 275 274 272 271 271 271 270 269 266 258 251 249 246 246
185 194 200 201 215 218 222 228 233 241 243 247 251 254 255 255 254 253 255 255 253 264 269 272 271 267 278 281 285 288 292 295 299 295 294 294 293 293 295 293 295 274 269 274 283 282 268 258 274 271 262 261 253 259 261 267 270 271 272 273 273 273 271 270 270 271 269 267 264 262 256 250 248 245
184 191 194 203 203 209 209 209 227 242 248 251 254 257 259 260 261 260 261 267 266 261 266 273 271 279 274 284 288 290 295 296 291 288 290 283 289 287 289 283 285 292 293 282 284 279 275 250 257 264 259 251 252 256 265 269 271 272 272 273 272 272 272 271 271 272 270 267 265 262 259 251 247 245
183 186 196 204 206 189 210 222 221 208 238 254 259 263 265 267 266 267 267 267 268 275 273 269 274 269 288 289 283 285 287 285 287 290 287 287 280 280 277 280 281 284 285 280 277 281 278 271 255 261 257 248 255 259 263 267 269 271 270 271 271 272 271 270 271 271 270 267 265 265 262 252 243 243
185 191 198 198 194 181 194 215 217 224 227 230 241 248 251 250 258 262 266 268 269 273 275 281 279 277 271 271 279 281 283 285 281 286 282 288 278 279 273 279 282 285 291 277 283 281 276 259 261 266 267 246 251 251 254 262 267 269 270 270 271 271 271 271 271 271 269 266 266 266 261 255 242 239
189 198 198 201 186 188 201 206 215 215 225 231 238 240 241 244 248 255 264 268 268 267 265 263 266 272 272 274 278 284 282 278 277 273 278 286 288 293 294 292 284 283 280 265 260 269 275 255 258 263 269 259 253 255 255 262 267 270 269 270 271 271 270 270 269 270 269 267 267 268 267 259 245 237
191 195 205 197 197 202 212 225 236 243 240 234 238 248 253 258 261 266 268 270 271 269 269 269 275 279 283 284 285 285 285 288 294 298 299 297 294 294 289 282 286 278 277 259 257 267 273 271 264 271 267 259 259 258 249 255 264 267 269 270 271 269 267 267 270 271 268 267 266 266 264 262 253 242
195 197 200 200 198 214 217 234 245 249 252 256 258 260 265 265 264 257 264 276 280 280 281 281 282 283 284 286 289 293 296 296 300 305 298 288 295 290 289 285 286 283 287 256 255 263 270 274 262 271 267 257 262 262 255 256 261 268 269 269 268 267 267 268 269 267 266 264 264 264 263 261 254 246
183 203 204 204 205 217 233 243 249 253 259 261 259 264 265 263 261 275 284 286 279 281 283 281 280 280 286 293 295 295 294 293 293 284 280 287 294 286 283 284 286 289 281 268 258 263 260 276 266 264 271 267 251 265 262 258 260 262 264 264 264 265 264 266 267 267 264 262 260 260 260 258 253 246
193 209 214 217 217 223 234 244 251 258 262 266 263 261 264 270 280 283 288 286 283 273 262 270 290 293 290 289 287 286 288 288 288 283 279 280 274 275 278 279 284 283 276 245 234 254 266 269 267 259 278 271 257 241 256 254 258 254 252 251 255 261 271 277 279 275 268 262 259 257 254 253 249 245
195 202 210 217 223 228 237 250 259 264 265 263 263 268 276 278 278 291 285 269 266 282 295 295 289 286 287 283 278 270 271 273 273 279 277 274 270 268 276 280 278 276 284 323 304 281 280 272 275 259 254 279 287 264 244 262 259 269 271 275 273 272 273 273 273 270 267 258 258 259 255 252 253 248
194 199 197 195 215 230 242 250 257 264 268 271 280 285 278 280 285 287 278 284 305 306 299 293 288 284 283 278 272 271 270 264 262 266 272 269 270 272 274 280 282 279 280 289 294 281 284 278 272 273 257 256 264 277 260 252 258 250 251 250 261 258 256 258 265 270 272 268 262 259 260 261 256 249
191 189 182 189 216 225 241 254 262 267 275 285 290 287 287 289 292 294 299 316 312 299 292 287 283 282 283 285 282 277 278 276 269 275 280 279 279 278 276 278 281 284 283 288 288 282 282 278 275 279 269 263 263 254 275 258 250 252 246 251 250 255 250 256 256 260 262 254 253 250 251 255 256 255
181 170 176 186 204 230 247 256 264 278 288 294 291 290 292 294 298 305 334 317 302 288 284 284 283 284 282 285 288 287 284 283 286 291 288 286 285 278 277 275 274 277 283 287 284 278 272 276 274 268 271 264 266 268 261 271 267 248 250 242 243 245 244 240 246 251 251 252 253 251 251 254 258 258
163 151 158 170 212 231 245 264 284 290 292 292 293 296 297 301 309 328 315 299 286 286 288 285 284 284 286 285 287 290 295 296 297 295 291 288 287 284 282 279 273 271 279 283 284 277 273 276 275 262 260 260 261 260 269 260 262 257 262 257 246 248 245 242 245 247 250 250 253 253 257 258 253 256
148 160 175 194 217 234 272 296 304 310 306 300 296 298 302 310 337 314 292 287 289 290 289 290 291 291 295 297 296 298 299 297 293 287 280 273 265 265 269 270 267 269 273 276 274 269 269 269 271 277 271 260 255 258 255 261 264 258 250 264 262 241 235 238 238 244 248 247 247 247 245 247 251 246
164 178 193 193 126 60 8 344 332 291 284 292 298 303 308 316 299 279 281 284 288 286 292 294 295 296 300 301 300 297 294 290 287 291 290 293 285 278 278 282 273 254 257 261 271 273 273 268 263 265 266 261 253 257 254 257 255 254 251 248 256 266 249 242 244 244 244 245 243 243 242 241 245 250
145 140 127 107 131 92 331 318 303 304 306 311 306 296 285 275 271 270 257 266 281 290 293 293 291 294 296 297 297 296 297 293 292 289 287 285 287 291 285 280 283 289 271 257 268 278 279 277 277 276 275 273 263 250 249 245 252 250 249 248 252 250 256 242 234 235 235 242 246 245 247 246 246 241
123 111 91 81 74 67 49 28 14 292 271 271 275 277 273 271 268 273 286 292 287 280 281 285 291 293 297 296 295 295 292 289 287 285 283 286 288 286 290 289 286 290 290 280 263 258 269 273 275 274 269 270 272 263 249 245 244 243 247 243 246 251 250 248 245 248 237 245 249 247 244 239 243 243
98 103 102 110 90 81 77 25 263 263 271 266 260 268 271 265 264 275 274 275 279 285 291 293 296 297 298 295 294 291 289 287 289 291 289 285 284 290 281 279 286 293 297 298 297 284 266 270 274 277 276 273 271 271 264 253 241 235 243 237 242 244 247 241 239 241 239 238 244 250 253 246 242 245
126 140 146 146 125 121 151 222 261 271 275 289 292 280 282 283 282 279 280 280 284 291 290 291 295 295 296 294 295 294 294 295 294 292 293 293 293 292 292 290 287 286 286 290 295 299 295 283 278 276 271 269 262 259 257 252 249 241 234 235 234 243 242 241 238 237 232 230 240 247 251 253 245 239
149 161 156 151 134 175 177 212 231 255 267 277 278 283 284 279 285 289 282 283 285 288 291 291 289 288 289 290 293 296 297 298 298 298 292 289 292 290 292 291 292 291 291 291 294 294 295 297 299 294 290 288 286 271 239 238 251 240 243 235 235 237 244 236 236 235 236 236 232 243 252 257 256 247
156 160 152 147 176 173 190 218 218 229 246 257 264 271 282 288 285 288 284 287 289 290 292 292 289 286 286 288 292 294 297 297 298 298 300 299 297 295 289 286 289 290 288 288 291 292 292 292 295 294 294 297 292 288 286 232 226 236 236 242 233 238 240 240 237 237 236 235 230 233 244 252 255 252
162 157 152 162 173 181 201 205 206 232 238 253 258 258 268 280 286 283 287 295 289 286 286 288 287 287 287 291 294 295 296 298 300 302 300 300 297 295 295 292 289 288 290 287 284 287 286 284 285 282 284 284 282 281 275 286 240 224 229 236 239 233 237 238 235 236 230 232 234 224 236 246 254 255
161 154 158 172 181 189 200 210 225 253 253 256 257 268 270 271 278 281 286 288 289 289 289 285 281 287 290 293 296 299 300 297 296 298 301 303 303 300 296 295 296 293 290 287 286 284 280 279 279 277 272 271 279 277 283 276 270 240 217 224 234 233 230 234 236 235 236 223 230 227 227 242 245 251
147 153 163 171 184 175 196 208 217 248 261 260 266 270 277 280 276 281 286 285 288 287 287 285 284 288 291 292 293 294 297 300 302 303 303 303 300 299 300 298 296 295 293 292 289 285 281 276 276 274 265 264 263 269 279 287 282 294 257 227 226 232 227 226 235 234 239 234 227 228 227 235 248 253
152 140 155 158 177 176 192 208 227 241 252 259 263 267 268 277 285 286 289 288 287 283 284 289 292 293 290 289 291 292 290 290 294 300 301 300 299 297 295 295 295 297 296 293 293 290 283 278 277 273 272 265 268 271 279 281 285 285 283 275 242 231 230 219 231 234 240 238 233 232 234 232 238 251
143 153 170 167 160 176 190 215 232 241 251 258 264 272 274 273 281 280 277 281 285 296 295 288 289 290 291 294 294 294 296 298 300 300 300 299 298 297 297 298 296 295 294 293 291 290 287 282 278 280 278 275 274 279 275 269 266 265 267 260 246 227 227 226 230 228 234 238 234 235 241 235 242 254
152 160 163 161 167 192 195 225 238 240 255 255 263 268 275 280 270 289 294 297 292 283 284 289 292 295 294 294 295 296 295 297 303 303 303 302 302 301 298 297 297 299 295 293 294 291 290 286 283 279 272 268 265 261 259 259 261 265 261 263 259 231 225 226 227 229 230 233 235 241 243 251 242 254
152 151 162 175 174 187 206 229 242 245 260 263 266 268 273 281 286 294 292 290 290 291 290 294 294 293 294 293 294 294 295 299 302 301 303 303 303 302 304 301 297 296 294 291 289 289 291 291 286 282 276 264 259 256 260 262 266 267 268 264 262 255 234 225 226 228 230 231 231 233 234 237 240 240
156 161 179 173 177 202 219 231 244 244 254 260 266 270 269 277 286 290 290 290 292 293 294 292 293 293 294 296 293 292 293 299 303 307 306 303 301 302 301 300 299 297 296 294 295 294 295 292 288 283 276 265 261 261 258 262 263 262 261 258 258 254 246 233 226 231 231 231 231 232 234 236 238 248
163 171 169 172 182 213 230 240 244 251 252 261 265 270 275 280 280 285 285 285 288 290 293 292 293 295 296 297 296 299 303 309 309 303 300 301 302 302 301 300 301 301 298 299 298 299 299 295 290 274 266 267 264 257 260 258 262 266 265 262 261 252 250 242 240 234 229 233 231 230 232 231 234 235